Regional Weather Roundup
Issued by NWS

Home | Current Version | Previous Version | Text Only | Print | Product List | Glossary On
Versions: 1 2 3 4 5 6 7 8 9 10 11 12 13 14 15 16 17 18 19 20 21 22 23 24 25 26 27 28 29 30 31 32 33 34 35 36 37 38 39 40 41 42 43 44 45 46 47 48 49 50
000
ASUS43 KDMX 130606
RWRIA

WEATHER ROUNDUP FOR IOWA
NATIONAL WEATHER SERVICE DES MOINES IA
1200 AM CST WED DEC 13 2017

NOTE: "FAIR" INDICATES FEW OR NO CLOUDS BELOW 12,000 FEET WITH NO
SIGNIFICANT WEATHER AND/OR OBSTRUCTIONS TO VISIBILITY.

* - THESE STATIONS ARE NOT NWS STATIONS...THUS NOT UNDER NWS
QUALITY CONTROL.  THEY ALSO DO NOT REPORT WEATHER SUCH
AS PRECIPITATION OR FOG.

IAZ001>003-012>014-020>022-031>034-043>046-130700-
   NORTHWEST IOWA

CITY           SKY/WX    TMP DP  RH WIND       PRES   REMARKS
CARROLL *      CLOUDY    34  25  69 SW22      29.69F WCI  22
CHEROKEE *     PTCLDY    33  25  71 SW9       29.66F WCI  26
DENISON *      CLEAR     34  25  69 SW9       29.71F WCI  26
LE MARS *      CLOUDY    32  23  69 S10       29.65F WCI  24
ORANGE CITY *  CLOUDY    32  27  80 SW8       29.63F WCI  25
SHELDON *      CLOUDY    34  23  64 SW13      29.60F WCI  25
SIOUX CITY     CLOUDY    25  20  81 S5        29.68F WCI  19
6HR MIN TEMP:  24; 6HR MAX TEMP:  36;

SPENCER        CLOUDY    35  24  64 SW17G25   29.61F WCI  25
6HR MIN TEMP:  26; 6HR MAX TEMP:  35;

STORM LAKE *   CLOUDY    34  23  64 SW14      29.65F WCI  24
$$

IAZ055>058-069>071-079>083-090>094-130700-
   SOUTHWEST IOWA

CITY           SKY/WX    TMP DP  RH WIND       PRES   REMARKS
ATLANTIC *     CLEAR     30  27  86 S14       29.77F WCI  20
AUDUBON *      CLEAR     30  25  80 S10       29.74F WCI  21
CLARINDA *       N/A     27  23  86 S7          N/A  WCI  19
COUNCIL BLFS * CLEAR     36  27  69 SW14      29.75F WCI  27
CRESTON *      CLEAR     27  23  86 S9        29.81F WCI  17
HARLAN  *      CLOUDY    28  25  86 S8        29.79F WCI  20
LAMONI         CLEAR     28  21  75 S12       29.83F WCI  18
6HR MIN TEMP:  26; 6HR MAX TEMP:  28;

RED OAK *      CLEAR     28  25  86 SW5       29.80F WCI  23
SHENANDOAH *   CLEAR     32  25  74 S7        29.81F WCI  26
$$

IAZ047>049-059>061-072>074-084-130700-
   CENTRAL IOWA

CITY           SKY/WX    TMP DP  RH WIND       PRES   REMARKS
AMES           CLOUDY    27  23  85 S6        29.74F WCI  20
6HR MIN TEMP:  24; 6HR MAX TEMP:  29;

ANKENY *       CLEAR     28  23  80 S6        29.78F WCI  22
BOONE *        CLOUDY    32  25  74 SW15G22   29.71F WCI  22
CHARITON *     CLEAR     28  21  74 S14       29.82F WCI  17
DES MOINES     CLEAR     28  21  75 S9        29.78F WCI  19
6HR MIN TEMP:  27; 6HR MAX TEMP:  30;

GRINNELL*      CLOUDY    27  20  73 S13       29.80F WCI  16
KNOXVILLE *    CLEAR     30  21  69 S14       29.79F WCI  20
MARSHALLTOWN   CLOUDY    30  21  69 S17       29.74F WCI  18
6HR MIN TEMP:  23; 6HR MAX TEMP:  30;

NEWTON *       CLOUDY    27  19  74 S12       29.79F WCI  16
PELLA *        CLEAR     29  21  70 S10       29.82F WCI  20
PERRY *          N/A     28  23  81 S12       29.72F WCI  18
$$

IAZ004>006-015-016-023>025-035-036-130700-
   NORTH CENTRAL IOWA

CITY           SKY/WX    TMP DP  RH WIND       PRES   REMARKS
ALGONA *       CLOUDY    27  25  93 S13       29.64F WCI  16
CLARION *      CLOUDY    27  25  93 S14       29.67F WCI  15
ESTHERVILLE    CLOUDY    32  25  75 SW15      29.59F WCI  22
6HR MIN TEMP:  27; 6HR MAX TEMP:  32;

FORT DODGE *   CLOUDY    28  23  81 S9        29.68F WCI  19
MASON CITY     CLOUDY    29  22  75 S16G23    29.66F WCI  17
6HR MIN TEMP:  23; 6HR MAX TEMP:  32;

FOREST CITY *    N/A     30  25  80 S7        29.65F WCI  23
WEBSTER CITY * PTCLDY    28  23  80 S13       29.67F WCI  18
IOWA FALLS *     N/A     28  22  78 S15       29.73F WCI  16
$$

IAZ007>011-017>019-026>030-037>042-050>054-066-130700-
   NORTHEAST IOWA

CITY           SKY/WX    TMP DP  RH WIND       PRES   REMARKS
CEDAR RAPIDS   CLOUDY    26  14  60 S7        29.81F WCI  18
6HR MIN TEMP:  21; 6HR MAX TEMP:  26;

CHARLES CITY * CLOUDY    27  21  80 S13       29.70F WCI  16
CLINTON *      CLOUDY    24  12  60 S9        29.86F WCI  14
DECORAH *      MOCLDY    27  19  74 S10       29.70F WCI  17
DUBUQUE        CLOUDY    23  14  68 S10       29.79F WCI  12
6HR MIN TEMP:  21; 6HR MAX TEMP:  24;

MONTICELLO *   CLOUDY    28  12  50 S8G14     29.80F WCI  20
OELWEIN *      CLOUDY    27  18  69 S12       29.75F WCI  16
WATERLOO       CLOUDY    26  18  71 S8        29.74F WCI  18
6HR MIN TEMP:  23; 6HR MAX TEMP:  28;

$$

IAZ064-065-067-068-078-130700-
   EAST CENTRAL IOWA

CITY           SKY/WX    TMP DP  RH WIND       PRES   REMARKS
DAVENPORT      CLOUDY    27   7  42 SW10      29.88F WCI  17
6HR MIN TEMP:  23; 6HR MAX TEMP:  27;

IOWA CITY      CLOUDY    27  14  58 S6        29.86F WCI  20
6HR MIN TEMP:  24; 6HR MAX TEMP:  27;

MT. PLEASANT * CLOUDY    26  12  54 S9        29.89F WCI  17
MUSCATINE *    MOCLDY    25   9  50 S8        29.88F WCI  16
QUAD CITIES    CLOUDY    28   7  41 SW7       29.88F WCI  21
6HR MIN TEMP:  23; 6HR MAX TEMP:  28;

$$

IAZ062-063-075>077-085>089-095>099-130700-
   SOUTHEAST IOWA

CITY           SKY/WX    TMP DP  RH WIND       PRES   REMARKS
BURLINGTON     MOCLDY    25  14  63 S8        29.89F WCI  16
6HR MIN TEMP:  21; 6HR MAX TEMP:  27;

FAIRFIELD *    CLOUDY    28  14  54 S10       29.85F WCI  19
FORT MADISON * CLOUDY    27  12  54 SW10      29.91F WCI  17
KEOKUK *       CLOUDY    27  10  50 SW8       29.91F WCI  18
OSKALOOSA *      N/A     28  19  70 S12       29.84F WCI  18
OTTUMWA        PTCLDY    30  19  63 S13       29.84F WCI  20
6HR MIN TEMP:  22; 6HR MAX TEMP:  31;

WASHINGTON *   CLOUDY    28  16  59 S14       29.85F WCI  17
$$

ABBREVIATIONS USED IN REMARKS
   TC - TEMPERATURES IN CELSIUS
  WCI - WIND CHILL INDEX
   HX - HEAT INDEX
  VSB - VISIBILITY
$$





USA.gov is the U.S. government's official web portal to all federal, state and local government web resources and services.